Regional Weather Roundup
Issued by NWS Sioux Falls, SD

Home | Current Version | Previous Version | Graphics & Text | Print | Product List | Glossary On
Versions: 1 2 3 4 5 6 7 8 9 10 11 12 13 14 15 16 17 18 19 20 21 22 23 24 25 26 27 28 29 30 31 32 33 34 35 36 37 38 39 40 41 42 43 44 45 46 47 48 49 50
000
ASUS43 KFSD 231610
RWRFSD

WEATHER ROUNDUP FOR SE SOUTH DAKOTA/SW MINNESOTA/NW IOWA
NATIONAL WEATHER SERVICE SIOUX FALLS SD
1100 AM CDT TUE SEP 23 2014

NOTE: "FAIR" INDICATES FEW OR NO CLOUDS BELOW 12,000 FEET WITH NO
SIGNIFICANT WEATHER AND OR OBSTRUCTIONS TO VISIBILITY.


SDZ038>040-050-052>070-231700-
SOUTHEAST SOUTH DAKOTA

CITY           SKY/WX    TMP DP  RH WIND       PRES   REMARKS
CHAMBERLAIN    CLOUDY    60  55  85 SE16G22   29.98F
HURON          RAIN      57  55  93 SE16G25   30.04S FOG
MADISON        LGT RAIN  55  55 100 SE13      30.13S
MITCHELL       HVY RAIN  57  56  96 SE15G24   30.07S FOG
SIOUX FALLS    LGT RAIN  58  55  90 SE12      30.14S
WINNER         CLOUDY    63  56  78 S17G23    29.96S
YANKTON        CLOUDY    57  54  88 SE12G17   30.11F
$$

MNZ071-072-080-081-089-090-097-098-231700-
SOUTHWEST MINNESOTA

CITY           SKY/WX    TMP DP  RH WIND       PRES   REMARKS
FAIRMONT       PTSUNNY  N/A N/A N/A S12       30.21S
JACKSON        CLOUDY    63  52  67 S8        30.21S
LUVERNE        LGT RAIN  57  54  88 SE7       30.17S
MARSHALL       CLOUDY    63  52  67 S14       30.15S
MONTEVIDEO     PTSUNNY   66  55  68 SW9       30.15S
PIPESTONE      LGT RAIN  57  54  88 S9        30.16S
REDWOOD FALLS  PTSUNNY   68  54  60 S15       30.17F
TRACY          CLOUDY    62  53  74 S10       30.17S
WINDOM         CLOUDY    64  52  63 S9        30.19S
WORTHINGTON    CLOUDY    55  54  94 S7        30.19F
$$

IAZ001>003-012>014-020>022-031-032-NEZ013-014-SDZ071-231700-
NORTHWEST IOWA

CITY           SKY/WX    TMP DP  RH WIND       PRES   REMARKS
CHEROKEE       CLOUDY    60  56  88 S8        30.18F
DENISON        CLOUDY    61  54  77 S12G17    30.18S
ESTHERVILLE    PTSUNNY   61  53  75 S14       30.21S
LE MARS        CLOUDY    61  55  82 SE8       30.16F
ORANGE CITY    CLOUDY    61  55  82 SE7       30.17S
SHELDON        CLOUDY    57  55  94 SE9       30.16F
SIOUX CITY     LGT RAIN  61  57  87 SE7       30.15F
SPENCER        CLOUDY    60  53  77 S9        30.20F
$$

ABBREVIATIONS USED IN REMARKS
   TC - TEMPERATURE IN CELSIUS
  WCI - WIND CHILL INDEX
   HX - HEAT INDEX
  VSB - VISIBILITY



USA.gov is the U.S. government's official web portal to all federal, state and local government web resources and services.